TimeCST,TemperatureF,Dew PointF,Humidity,Sea Level PressureIn,VisibilityMPH,Wind Direction,Wind SpeedMPH,Gust SpeedMPH,PrecipitationIn,Events,Conditions,WindDirDegrees,DateUTC
12:15 AM,19.0,13.8,80,30.35,10.0,WNW,3.5,-,N/A,,Clear,290,2013-02-16 06:15:00
12:35 AM,18.3,13.5,81,30.35,10.0,Calm,Calm,-,N/A,,Clear,0,2013-02-16 06:35:00
12:55 AM,17.8,13.1,82,30.36,10.0,West,5.8,-,N/A,,Clear,260,2013-02-16 06:55:00
1:15 AM,17.1,12.2,81,30.35,10.0,West,3.5,-,N/A,,Clear,280,2013-02-16 07:15:00
1:35 AM,16.5,12.2,83,30.35,10.0,West,3.5,-,N/A,,Clear,260,2013-02-16 07:35:00
1:55 AM,16.0,11.5,82,30.34,10.0,Calm,Calm,-,N/A,,Clear,0,2013-02-16 07:55:00
2:15 AM,17.2,12.6,82,30.34,10.0,West,5.8,-,N/A,,Clear,270,2013-02-16 08:15:00
2:35 AM,16.7,12.2,82,30.33,10.0,West,4.6,-,N/A,,Clear,260,2013-02-16 08:35:00
2:55 AM,16.5,12.2,83,30.33,10.0,West,5.8,-,N/A,,Clear,270,2013-02-16 08:55:00
3:15 AM,15.3,11.3,84,30.31,10.0,Calm,Calm,-,N/A,,Clear,0,2013-02-16 09:15:00
3:35 AM,14.7,11.1,86,30.29,10.0,Calm,Calm,-,N/A,,Clear,0,2013-02-16 09:35:00
3:55 AM,16.3,12.7,86,30.30,10.0,West,5.8,-,N/A,,Clear,260,2013-02-16 09:55:00
4:15 AM,15.8,12.0,85,30.29,10.0,WSW,5.8,-,N/A,,Clear,250,2013-02-16 10:15:00
4:35 AM,15.3,10.9,83,30.29,10.0,Calm,Calm,-,N/A,,Clear,0,2013-02-16 10:35:00
4:55 AM,15.6,11.8,85,30.28,10.0,Calm,Calm,-,N/A,,Scattered Clouds,0,2013-02-16 10:55:00
5:15 AM,17.8,13.3,83,30.27,10.0,SW,3.5,-,N/A,,Mostly Cloudy,230,2013-02-16 11:15:00
5:35 AM,17.6,13.1,83,30.27,10.0,SW,4.6,-,N/A,,Mostly Cloudy,230,2013-02-16 11:35:00
5:55 AM,18.0,13.1,81,30.26,10.0,WSW,5.8,-,N/A,,Mostly Cloudy,240,2013-02-16 11:55:00
6:15 AM,18.5,13.8,82,30.25,10.0,SW,3.5,-,N/A,,Mostly Cloudy,230,2013-02-16 12:15:00
6:35 AM,18.9,14.4,83,30.25,10.0,SW,5.8,-,N/A,,Overcast,230,2013-02-16 12:35:00
6:55 AM,19.8,14.9,81,30.24,10.0,SW,4.6,-,N/A,,Overcast,220,2013-02-16 12:55:00
7:15 AM,20.7,15.4,80,30.23,10.0,SSW,6.9,-,N/A,,Overcast,210,2013-02-16 13:15:00
7:35 AM,21.7,16.2,79,30.22,10.0,SSW,6.9,-,N/A,,Overcast,210,2013-02-16 13:35:00
7:55 AM,22.5,16.9,79,30.22,10.0,SSW,6.9,-,N/A,,Overcast,200,2013-02-16 13:55:00
8:15 AM,23.4,17.4,78,30.21,10.0,SSW,8.1,-,N/A,,Overcast,210,2013-02-16 14:15:00
8:35 AM,23.9,17.4,76,30.21,10.0,SSW,8.1,-,N/A,,Overcast,200,2013-02-16 14:35:00
8:55 AM,25.3,18.3,75,30.19,10.0,SSW,11.5,-,N/A,,Overcast,200,2013-02-16 14:55:00
9:15 AM,26.6,18.7,72,30.18,10.0,SSW,12.7,-,N/A,,Overcast,200,2013-02-16 15:15:00
9:35 AM,27.1,18.5,70,30.18,10.0,SSW,13.8,19.6,N/A,,Overcast,200,2013-02-16 15:35:00
12:35 PM,37.9,16.0,41,30.08,10.0,SSW,18.4,23.0,N/A,,Overcast,200,2013-02-16 18:35:00
12:55 PM,39.2,15.8,39,30.06,10.0,SSW,15.0,25.3,N/A,,Overcast,210,2013-02-16 18:55:00
1:15 PM,40.3,16.5,38,30.05,10.0,SSW,15.0,20.7,N/A,,Overcast,210,2013-02-16 19:15:00
1:35 PM,41.5,16.2,36,30.04,10.0,SSW,15.0,20.7,N/A,,Overcast,210,2013-02-16 19:35:00
1:55 PM,42.4,16.7,35,30.03,10.0,SSW,12.7,18.4,N/A,,Mostly Cloudy,200,2013-02-16 19:55:00
2:15 PM,43.7,16.7,34,30.03,10.0,SSW,10.4,-,N/A,,Scattered Clouds,210,2013-02-16 20:15:00
2:35 PM,45.3,17.2,33,30.02,10.0,SSW,6.9,-,N/A,,Mostly Cloudy,210,2013-02-16 20:35:00
2:55 PM,45.7,18.1,33,30.01,10.0,SW,5.8,-,N/A,,Overcast,230,2013-02-16 20:55:00
3:15 PM,46.2,18.5,33,30.01,10.0,South,8.1,-,N/A,,Overcast,190,2013-02-16 21:15:00
3:35 PM,46.9,19.2,33,30.00,10.0,WSW,5.8,-,N/A,,Overcast,240,2013-02-16 21:35:00
3:55 PM,48.4,19.9,32,29.99,10.0,SW,6.9,-,N/A,,Mostly Cloudy,220,2013-02-16 21:55:00
4:15 PM,49.3,21.7,34,29.99,10.0,WSW,5.8,-,N/A,,Scattered Clouds,250,2013-02-16 22:15:00
4:35 PM,49.5,21.9,34,29.98,10.0,West,5.8,-,N/A,,Scattered Clouds,280,2013-02-16 22:35:00
4:55 PM,49.1,22.1,35,29.98,10.0,Calm,Calm,-,N/A,,Clear,0,2013-02-16 22:55:00
5:15 PM,48.7,22.1,35,29.97,10.0,Calm,Calm,-,N/A,,Clear,0,2013-02-16 23:15:00
5:35 PM,48.6,21.9,35,29.97,10.0,Calm,Calm,-,N/A,,Clear,0,2013-02-16 23:35:00
5:55 PM,47.5,22.1,37,29.97,10.0,Calm,Calm,-,N/A,,Clear,0,2013-02-16 23:55:00
6:15 PM,39.7,21.9,49,29.97,10.0,SE,3.5,-,N/A,,Clear,140,2013-02-17 00:15:00
6:35 PM,37.8,21.9,53,29.97,10.0,SSE,4.6,-,N/A,,Clear,160,2013-02-17 00:35:00
6:55 PM,36.5,22.6,57,29.98,10.0,South,4.6,-,N/A,,Clear,180,2013-02-17 00:55:00
7:15 PM,33.8,22.5,63,29.99,10.0,Calm,Calm,-,N/A,,Clear,0,2013-02-17 01:15:00
7:35 PM,33.3,22.5,65,29.99,10.0,Calm,Calm,-,N/A,,Clear,0,2013-02-17 01:35:00
7:55 PM,33.6,22.6,64,29.99,10.0,Calm,Calm,-,N/A,,Clear,0,2013-02-17 01:55:00
8:15 PM,33.1,22.5,65,29.98,10.0,Calm,Calm,-,N/A,,Clear,0,2013-02-17 02:15:00
8:35 PM,33.8,21.2,60,29.98,10.0,Calm,Calm,-,N/A,,Clear,0,2013-02-17 02:35:00
8:55 PM,32.0,20.7,63,29.98,10.0,ENE,3.5,-,N/A,,Clear,60,2013-02-17 02:55:00
9:15 PM,32.7,20.1,60,29.98,10.0,Calm,Calm,-,N/A,,Clear,0,2013-02-17 03:15:00
9:35 PM,32.0,19.9,61,29.97,10.0,Calm,Calm,-,N/A,,Clear,0,2013-02-17 03:35:00
9:55 PM,31.8,19.8,61,29.97,10.0,Calm,Calm,-,N/A,,Clear,0,2013-02-17 03:55:00
10:15 PM,31.6,20.1,62,29.98,10.0,East,4.6,-,N/A,,Clear,90,2013-02-17 04:15:00
10:35 PM,30.4,20.1,66,29.97,10.0,East,3.5,-,N/A,,Clear,100,2013-02-17 04:35:00
10:55 PM,30.0,19.6,65,29.97,10.0,Calm,Calm,-,N/A,,Clear,0,2013-02-17 04:55:00
11:15 PM,30.9,19.6,63,29.97,10.0,Calm,Calm,-,N/A,,Clear,0,2013-02-17 05:15:00
11:35 PM,27.7,20.1,73,29.97,10.0,Calm,Calm,-,N/A,,Clear,0,2013-02-17 05:35:00
11:55 PM,28.2,19.9,71,29.96,10.0,Calm,Calm,-,N/A,,Clear,0,2013-02-17 05:55:00